| time (UTC) | temp F | wind direction | speed MPH | gust MPH | rain 1hr in | rain 24hr in | rain mn in | humidity % | barometer mb |
| 20260506033002 | 48 | 238 | 6.0 | 11.0 | 0.00 | 0.00 | 0.00 | 89 | 1007.8 |
| 20260506032024 | 48 | 239 | 5.0 | 12.0 | 0.00 | 0.00 | 0.00 | 89 | 1007.9 |
| 20260506031024 | 48 | 234 | 7.0 | 12.0 | 0.00 | 0.00 | 0.00 | 89 | 1008.0 |
| 20260506030002 | 48 | 231 | 6.0 | 12.0 | 0.00 | 0.00 | 0.00 | 89 | 1007.8 |
| 20260506025003 | 48 | 220 | 7.0 | 11.0 | 0.00 | 0.00 | 0.00 | 89 | 1007.8 |
| 20260506024002 | 48 | 227 | 6.0 | 11.0 | 0.00 | 0.00 | 0.00 | 88 | 1008.0 |
| 20260506023003 | 48 | 231 | 6.0 | 10.0 | 0.00 | 0.00 | 0.00 | 88 | 1008.1 |
| 20260506022002 | 48 | 244 | 3.0 | 10.0 | 0.00 | 0.00 | 0.00 | 88 | 1008.2 |
| 20260506021003 | 48 | 218 | 6.0 | 10.0 | 0.00 | 0.00 | 0.00 | 88 | 1008.1 |
| 20260506020003 | 48 | 226 | 9.0 | 12.0 | 0.00 | 0.00 | 0.00 | 87 | 1008.2 |
| 20260506015003 | 48 | 228 | 8.0 | 11.0 | 0.00 | 0.00 | 0.00 | 86 | 1008.2 |
| 20260506014003 | 49 | 230 | 6.0 | 12.0 | 0.00 | 0.00 | 0.00 | 86 | 1008.3 |
| 20260506013002 | 49 | 256 | 3.0 | 9.0 | 0.00 | 0.00 | 0.00 | 86 | 1008.2 |
| 20260506012003 | 49 | 237 | 5.0 | 10.0 | 0.00 | 0.00 | 0.00 | 86 | 1007.9 |
| 20260506011002 | 49 | 227 | 9.0 | 20.0 | 0.00 | 0.00 | 0.00 | 85 | 1008.0 |
| 20260506010024 | 50 | 210 | 16.0 | 26.0 | 0.00 | 0.00 | 0.00 | 83 | 1007.5 |
| 20260506005024 | 51 | 209 | 23.0 | 28.0 | 0.00 | 0.00 | 0.00 | 85 | 1007.3 |
| 20260506004003 | 50 | 201 | 20.0 | 23.0 | 0.00 | 0.00 | 0.00 | 86 | 1007.1 |
| 20260506003024 | 50 | 206 | 15.0 | 20.0 | 0.00 | 0.00 | 0.00 | 85 | 1006.9 |
| 20260506002003 | 51 | 240 | 8.0 | 18.0 | 0.00 | 0.00 | 0.00 | 84 | 1007.2 |
| 20260506001002 | 50 | 241 | 8.0 | 18.0 | 0.00 | 0.00 | 0.00 | 84 | 1007.1 |
| 20260506000003 | 51 | 251 | 8.0 | 23.0 | 0.00 | 0.00 | 0.00 | 84 | 1007.3 |
| 20260505235002 | 52 | 249 | 11.0 | 39.0 | 0.00 | 0.00 | 0.00 | 83 | 1007.0 |
| 20260505234045 | 51 | 214 | 26.0 | 35.0 | 0.00 | 0.00 | 0.00 | 85 | 1005.4 |
| 20260505233003 | 51 | 202 | 28.0 | 35.0 | 0.00 | 0.00 | 0.00 | 85 | 1004.7 |
| 20260505231003 | 51 | 202 | 30.0 | 37.0 | 0.00 | 0.00 | 0.00 | 84 | 1004.4 |
| 20260505230003 | 51 | 202 | 31.0 | 36.0 | 0.00 | 0.00 | 0.00 | 84 | 1004.2 |
| 20260505225003 | 51 | 201 | 31.0 | 37.0 | 0.00 | 0.00 | 0.00 | 84 | 1004.0 |
| 20260505224002 | 52 | 199 | 31.0 | 36.0 | 0.00 | 0.00 | 0.00 | 84 | 1003.8 |
| 20260505223003 | 52 | 198 | 32.0 | 39.0 | 0.00 | 0.00 | 0.00 | 83 | 1003.6 |
| 20260505222002 | 52 | 199 | 31.0 | 40.0 | 0.00 | 0.00 | 0.00 | 83 | 1003.6 |
| 20260505221003 | 52 | 198 | 31.0 | 39.0 | 0.00 | 0.00 | 0.00 | 83 | 1003.6 |
| 20260505220002 | 52 | 196 | 33.0 | 40.0 | 0.00 | 0.00 | 0.00 | 84 | 1003.5 |
| 20260505215003 | 52 | 196 | 32.0 | 38.0 | 0.00 | 0.00 | 0.00 | 84 | 1003.5 |
| 20260505214003 | 52 | 195 | 32.0 | 38.0 | 0.00 | 0.00 | 0.00 | 84 | 1003.7 |
| 20260505213003 | 53 | 195 | 30.0 | 37.0 | 0.00 | 0.00 | 0.00 | 83 | 1004.0 |
| 20260505212003 | 53 | 191 | 30.0 | 37.0 | 0.00 | 0.00 | 0.00 | 83 | 1003.7 |
| 20260505211003 | 53 | 195 | 30.0 | 36.0 | 0.00 | 0.00 | 0.00 | 83 | 1003.9 |
| 20260505210024 | 53 | 195 | 30.0 | 37.0 | 0.00 | 0.00 | 0.00 | 83 | 1003.9 |
| 20260505205003 | 53 | 194 | 28.0 | 34.0 | 0.00 | 0.00 | 0.00 | 83 | 1003.8 |
| 20260505204024 | 53 | 194 | 29.0 | 36.0 | 0.00 | 0.00 | 0.00 | 83 | 1003.8 |
| 20260505203002 | 53 | 195 | 30.0 | 35.0 | 0.00 | 0.00 | 0.00 | 83 | 1003.8 |
| 20260505202003 | 53 | 194 | 30.0 | 36.0 | 0.00 | 0.00 | 0.00 | 84 | 1003.9 |
| 20260505201002 | 53 | 192 | 30.0 | 36.0 | 0.00 | 0.00 | 0.00 | 84 | 1004.0 |
| 20260505200003 | 53 | 196 | 28.0 | 34.0 | 0.00 | 0.00 | 0.00 | 85 | 1004.2 |
| 20260505195002 | 52 | 195 | 28.0 | 33.0 | 0.00 | 0.00 | 0.00 | 85 | 1004.4 |
| 20260505194003 | 52 | 197 | 25.0 | 29.0 | 0.00 | 0.00 | 0.00 | 85 | 1004.4 |
| 20260505193003 | 52 | 194 | 23.0 | 29.0 | 0.00 | 0.00 | 0.00 | 84 | 1004.7 |
| 20260505192024 | 52 | 195 | 22.0 | 29.0 | 0.00 | 0.00 | 0.00 | 85 | 1005.0 |
| 20260505191003 | 52 | 198 | 24.0 | 27.0 | 0.00 | 0.00 | 0.00 | 84 | 1005.2 |
| 20260505190023 | 53 | 199 | 23.0 | 27.0 | 0.00 | 0.00 | 0.00 | 85 | 1005.2 |
| 20260505185024 | 52 | 206 | 20.0 | 25.0 | 0.00 | 0.00 | 0.00 | 84 | 1005.3 |
| 20260505184002 | 52 | 202 | 19.0 | 25.0 | 0.00 | 0.00 | 0.00 | 85 | 1005.4 |
| 20260505183003 | 52 | 198 | 21.0 | 26.0 | 0.00 | 0.00 | 0.00 | 85 | 1005.4 |
| 20260505182002 | 52 | 198 | 20.0 | 24.0 | 0.00 | 0.00 | 0.00 | 85 | 1005.4 |
| 20260505181003 | 52 | 198 | 20.0 | 23.0 | 0.00 | 0.00 | 0.00 | 85 | 1005.5 |
| 20260505180002 | 52 | 195 | 19.0 | 23.0 | 0.00 | 0.00 | 0.00 | 85 | 1005.7 |
| 20260505175024 | 52 | 193 | 17.0 | 21.0 | 0.00 | 0.00 | 0.00 | 85 | 1005.9 |
| 20260505174003 | 52 | 195 | 18.0 | 24.0 | 0.00 | 0.00 | 0.00 | 85 | 1006.3 |
| 20260505173024 | 52 | 193 | 21.0 | 24.0 | 0.00 | 0.00 | 0.00 | 85 | 1006.4 |
| 20260505172003 | 52 | 201 | 16.0 | 18.0 | 0.00 | 0.00 | 0.00 | 85 | 1006.5 |
| 20260505171045 | 52 | 202 | 15.0 | 20.0 | 0.00 | 0.00 | 0.00 | 85 | 1006.6 |
| 20260505170003 | 52 | 204 | 16.0 | 21.0 | 0.00 | 0.00 | 0.00 | 85 | 1006.7 |
| 20260505165002 | 53 | 207 | 12.0 | 15.0 | 0.00 | 0.00 | 0.00 | 85 | 1007.0 |
| 20260505164003 | 53 | 224 | 8.0 | 10.0 | 0.00 | 0.00 | 0.00 | 86 | 1007.3 |
| 20260505163003 | 53 | 236 | 4.0 | 9.0 | 0.00 | 0.00 | 0.00 | 86 | 1007.5 |
| 20260505162003 | 53 | 218 | 7.0 | 12.0 | 0.00 | 0.00 | 0.00 | 87 | 1007.6 |
| 20260505161003 | 52 | 227 | 7.0 | 12.0 | 0.00 | 0.00 | 0.00 | 87 | 1007.7 |
| 20260505153024 | 50 | 223 | 12.0 | 16.0 | 0.00 | 0.00 | 0.00 | 89 | 1008.0 |
| 20260505152003 | 49 | 212 | 13.0 | 20.0 | 0.00 | 0.00 | 0.00 | 88 | 1008.0 |
| 20260505151002 | 50 | 205 | 17.0 | 20.0 | 0.00 | 0.00 | 0.00 | 87 | 1007.7 |
| 20260505125003 | 49 | 209 | 8.0 | 11.0 | 0.00 | 0.00 | 0.00 | 90 | 1008.1 |
| 20260505124002 | 48 | 216 | 7.0 | 11.0 | 0.00 | 0.00 | 0.00 | 90 | 1008.0 |
| 20260505123003 | 48 | 211 | 8.0 | 11.0 | 0.00 | 0.00 | 0.00 | 90 | 1007.9 |
| 20260505122002 | 48 | 218 | 8.0 | 13.0 | 0.00 | 0.00 | 0.00 | 90 | 1007.9 |
| 20260505121003 | 48 | 221 | 10.0 | 12.0 | 0.00 | 0.00 | 0.00 | 90 | 1008.0 |
| 20260505120003 | 47 | 226 | 7.0 | 10.0 | 0.00 | 0.00 | 0.00 | 90 | 1008.1 |
| 20260505115003 | 47 | 221 | 8.0 | 10.0 | 0.00 | 0.00 | 0.00 | 90 | 1008.0 |
| 20260505114024 | 47 | 221 | 6.0 | 14.0 | 0.00 | 0.00 | 0.00 | 90 | 1008.2 |
| 20260505113003 | 47 | 222 | 9.0 | 18.0 | 0.00 | 0.00 | 0.00 | 90 | 1008.2 |
| 20260505112024 | 47 | 211 | 14.0 | 18.0 | 0.00 | 0.00 | 0.00 | 91 | 1008.3 |
| 20260505111002 | 46 | 230 | 5.0 | 10.0 | 0.00 | 0.00 | 0.00 | 91 | 1008.3 |
| 20260505102003 | 46 | 220 | 7.0 | 11.0 | 0.00 | 0.00 | 0.00 | 90 | 1007.9 |
| 20260505101003 | 46 | 226 | 8.0 | 12.0 | 0.00 | 0.00 | 0.00 | 90 | 1008.0 |
| 20260505100004 | 46 | 241 | 5.0 | 10.0 | 0.00 | 0.00 | 0.00 | 90 | 1007.9 |
| 20260505095003 | 46 | 241 | 4.0 | 11.0 | 0.00 | 0.00 | 0.00 | 90 | 1008.0 |
| 20260505094003 | 46 | 227 | 8.0 | 12.0 | 0.00 | 0.00 | 0.00 | 90 | 1008.0 |
| 20260505093003 | 46 | 244 | 5.0 | 10.0 | 0.00 | 0.00 | 0.00 | 90 | 1007.9 |
| 20260505092003 | 46 | 244 | 5.0 | 10.0 | 0.00 | 0.00 | 0.00 | 89 | 1007.7 |
| 20260505091003 | 46 | 250 | 6.0 | 10.0 | 0.00 | 0.00 | 0.00 | 90 | 1007.7 |
| 20260505090024 | 46 | 244 | 6.0 | 10.0 | 0.00 | 0.00 | 0.00 | 90 | 1007.9 |
| 20260505085003 | 46 | 242 | 6.0 | 10.0 | 0.00 | 0.00 | 0.00 | 89 | 1007.8 |
| 20260505084003 | 46 | 236 | 7.0 | 14.0 | 0.00 | 0.00 | 0.00 | 89 | 1007.9 |
| 20260505083002 | 46 | 246 | 5.0 | 10.0 | 0.00 | 0.00 | 0.00 | 89 | 1007.9 |
| 20260505082003 | 46 | 255 | 7.0 | 14.0 | 0.00 | 0.00 | 0.00 | 89 | 1008.0 |
| 20260505081003 | 46 | 258 | 9.0 | 14.0 | 0.00 | 0.00 | 0.00 | 89 | 1008.0 |
| 20260505080003 | 46 | 254 | 8.0 | 14.0 | 0.00 | 0.00 | 0.00 | 89 | 1008.0 |
| 20260505075003 | 46 | 252 | 5.0 | 10.0 | 0.00 | 0.00 | 0.00 | 89 | 1008.0 |
| 20260505074024 | 46 | 257 | 8.0 | 12.0 | 0.00 | 0.00 | 0.00 | 89 | 1007.8 |
| 20260505073003 | 46 | 256 | 5.0 | 10.0 | 0.00 | 0.00 | 0.00 | 88 | 1007.8 |
| 20260505072045 | 46 | 253 | 6.0 | 10.0 | 0.00 | 0.00 | 0.00 | 88 | 1007.8 |
| 20260505071024 | 46 | 241 | 7.0 | 10.0 | 0.00 | 0.00 | 0.00 | 88 | 1007.7 |
| 20260505070024 | 46 | 242 | 5.0 | 10.0 | 0.00 | 0.00 | 0.00 | 88 | 1007.7 |
| 20260505065003 | 47 | 254 | 7.0 | 12.0 | 0.00 | 0.00 | 0.00 | 88 | 1007.7 |
| 20260505064002 | 46 | 257 | 6.0 | 11.0 | 0.00 | 0.00 | 0.00 | 88 | 1007.7 |
| 20260505063003 | 46 | 248 | 5.0 | 9.0 | 0.00 | 0.00 | 0.00 | 88 | 1007.8 |
| 20260505062003 | 46 | 233 | 7.0 | 11.0 | 0.00 | 0.00 | 0.00 | 87 | 1007.8 |
| 20260505061002 | 47 | 246 | 6.0 | 10.0 | 0.00 | 0.00 | 0.00 | 87 | 1007.7 |
| 20260505060002 | 47 | 248 | 6.0 | 10.0 | 0.00 | 0.00 | 0.00 | 87 | 1007.7 |
| 20260505055003 | 47 | 250 | 5.0 | 10.0 | 0.00 | 0.00 | 0.00 | 86 | 1007.8 |
| 20260505054024 | 47 | 247 | 6.0 | 11.0 | 0.00 | 0.00 | 0.00 | 86 | 1007.8 |
| 20260505053003 | 47 | 248 | 6.0 | 11.0 | 0.00 | 0.00 | 0.00 | 85 | 1007.8 |
| 20260505052003 | 47 | 241 | 7.0 | 11.0 | 0.00 | 0.00 | 0.00 | 85 | 1007.7 |
| 20260505051023 | 48 | 252 | 8.0 | 12.0 | 0.00 | 0.00 | 0.00 | 85 | 1007.7 |
| 20260505041002 | 48 | 233 | 10.0 | 16.0 | 0.00 | 0.00 | 0.00 | 83 | 1007.1 |
| 20260505040003 | 49 | 243 | 8.0 | 13.0 | 0.00 | 0.00 | 0.00 | 82 | 1007.3 |
| 20260505035003 | 49 | 241 | 7.0 | 14.0 | 0.00 | 0.00 | 0.00 | 81 | 1007.1 |
| 20260505034003 | 49 | 254 | 9.0 | 14.0 | 0.00 | 0.00 | 0.00 | 82 | 1007.0 |